Location: Unspecified
(0.0000°N, 0.0000°E)
Time: 21:19:28
(UTC+00:00)

DMSP F15 (USA 147) - Pass Details

Date: 04 October 2020
Orbit: 829 x 845 km, 99.0° (Epoch: 26 October)

Event Time Altitude Azimuth Distance (km) Brightness Sun altitude
Rises 04:04:41 0° 1° (N) 3,354 8.3 -25.9°
Reaches altitude 10° 04:07:06 10° 356° (N) 2,424 7.5 -25.3°
Enters shadow 04:08:14 17° 351° (N) 2,005 7.0 -25.0°
